owner,sensor,date,latitude,longitude,vertical_datum,sea_water_temperature,qcFlag 
TABS,ioos:station:TABS:X:1,2016-07-18T22:30:00Z,27.0660,-96.3383,-2.0,40.29,11144222 
TABS,ioos:station:TABS:X:1,2016-07-18T23:00:00Z,27.0660,-96.3383,-2.0,39.3,11133222 
TABS,ioos:station:TABS:X:1,2016-07-18T23:30:00Z,27.0660,-96.3383,-2.0,40.53,11144222 
TABS,ioos:station:TABS:X:1,2016-07-19T00:00:00Z,27.0660,-96.3383,-2.0,37.84,11133222 
TABS,ioos:station:TABS:X:1,2016-07-19T00:30:00Z,27.0660,-96.3383,-2.0,35.28,11133222 
TABS,ioos:station:TABS:X:1,2016-07-19T01:00:00Z,27.0660,-96.3383,-2.0,33.85,11111222 
TABS,ioos:station:TABS:X:1,2016-07-19T01:30:00Z,27.0660,-96.3383,-2.0,32.74,11111222 
TABS,ioos:station:TABS:X:1,2016-07-19T02:00:00Z,27.0660,-96.3383,-2.0,31.96,11111222 
TABS,ioos:station:TABS:X:1,2016-07-19T02:30:00Z,27.0660,-96.3383,-2.0,31.39,11111222 
TABS,ioos:station:TABS:X:1,2016-07-19T03:00:00Z,27.0660,-96.3383,-2.0,30.88,11111222 
TABS,ioos:station:TABS:X:1,2016-07-19T03:30:00Z,27.0660,-96.3383,-2.0,30.37,11111222 
TABS,ioos:station:TABS:X:1,2016-07-19T04:00:00Z,27.0660,-96.3383,-2.0,30.0,11111222 
TABS,ioos:station:TABS:X:1,2016-07-19T04:30:00Z,27.0660,-96.3383,-2.0,29.7,11111222 
TABS,ioos:station:TABS:X:1,2016-07-19T05:00:00Z,27.0660,-96.3383,-2.0,29.41,11111222 
TABS,ioos:station:TABS:X:1,2016-07-19T05:30:00Z,27.0660,-96.3383,-2.0,29.02,11111222 
TABS,ioos:station:TABS:X:1,2016-07-19T06:00:00Z,27.0660,-96.3383,-2.0,28.71,11111222 
TABS,ioos:station:TABS:X:1,2016-07-19T06:30:00Z,27.0660,-96.3383,-2.0,28.32,11111222 
TABS,ioos:station:TABS:X:1,2016-07-19T07:00:00Z,27.0660,-96.3383,-2.0,28.02,11111222 
TABS,ioos:station:TABS:X:1,2016-07-19T07:30:00Z,27.0660,-96.3383,-2.0,27.73,11111222 
TABS,ioos:station:TABS:X:1,2016-07-19T08:00:00Z,27.0660,-96.3383,-2.0,27.48,11111222 
TABS,ioos:station:TABS:X:1,2016-07-19T08:30:00Z,27.0660,-96.3383,-2.0,27.19,11111222 
TABS,ioos:station:TABS:X:1,2016-07-19T09:00:00Z,27.0660,-96.3383,-2.0,26.92,11111222 
TABS,ioos:station:TABS:X:1,2016-07-19T09:30:00Z,27.0660,-96.3383,-2.0,26.91,11111222 
TABS,ioos:station:TABS:X:1,2016-07-19T10:00:00Z,27.0660,-96.3383,-2.0,26.77,11111222 
TABS,ioos:station:TABS:X:1,2016-07-19T10:30:00Z,27.0660,-96.3383,-2.0,26.54,11111222 
TABS,ioos:station:TABS:X:1,2016-07-19T11:00:00Z,27.0660,-96.3383,-2.0,26.32,11111222 
TABS,ioos:station:TABS:X:1,2016-07-19T11:30:00Z,27.0660,-96.3383,-2.0,26.19,11111222 
TABS,ioos:station:TABS:X:1,2016-07-19T12:00:00Z,27.0660,-96.3383,-2.0,26.27,11111222 
TABS,ioos:station:TABS:X:1,2016-07-19T12:30:00Z,27.0660,-96.3383,-2.0,27.64,11111222 
TABS,ioos:station:TABS:X:1,2016-07-19T13:00:00Z,27.0660,-96.3383,-2.0,29.76,11111222 
TABS,ioos:station:TABS:X:1,2016-07-19T13:30:00Z,27.0660,-96.3383,-2.0,32.2,11111222 
TABS,ioos:station:TABS:X:1,2016-07-19T14:00:00Z,27.0660,-96.3383,-2.0,34.25,11111222 
TABS,ioos:station:TABS:X:1,2016-07-19T14:30:00Z,27.0660,-96.3383,-2.0,35.74,11133222 
TABS,ioos:station:TABS:X:1,2016-07-19T15:00:00Z,27.0660,-96.3383,-2.0,36.07,11133222 
TABS,ioos:station:TABS:X:1,2016-07-19T15:30:00Z,27.0660,-96.3383,-2.0,36.14,11133222 
TABS,ioos:station:TABS:X:1,2016-07-19T17:00:00Z,27.0660,-96.3383,-2.0,40.98,11144222 
TABS,ioos:station:TABS:X:1,2016-07-19T17:30:00Z,27.0660,-96.3383,-2.0,41.55,11144222 
TABS,ioos:station:TABS:X:1,2016-07-19T18:00:00Z,27.0660,-96.3383,-2.0,44.29,11144222 
TABS,ioos:station:TABS:X:1,2016-07-19T18:30:00Z,27.0660,-96.3383,-2.0,44.62,11144222 
TABS,ioos:station:TABS:X:1,2016-07-19T19:00:00Z,27.0660,-96.3383,-2.0,44.92,11144222 
TABS,ioos:station:TABS:X:1,2016-07-19T19:30:00Z,27.0660,-96.3383,-2.0,48.13,11144222 
TABS,ioos:station:TABS:X:1,2016-07-19T20:00:00Z,27.0660,-96.3383,-2.0,48.93,11144222 
TABS,ioos:station:TABS:X:1,2016-07-19T20:30:00Z,27.0660,-96.3383,-2.0,49.68,11144222 
TABS,ioos:station:TABS:X:1,2016-07-19T21:00:00Z,27.0660,-96.3383,-2.0,49.05,11144222 
TABS,ioos:station:TABS:X:1,2016-07-19T21:30:00Z,27.0660,-96.3383,-2.0,45.42,11144222 
TABS,ioos:station:TABS:X:1,2016-07-19T22:00:00Z,27.0660,-96.3383,-2.0,42.0,11144222 
TABS,ioos:station:TABS:X:1,2016-07-19T22:30:00Z,27.0660,-96.3383,-2.0,45.37,11144222 
TABS,ioos:station:TABS:X:1,2016-07-19T23:00:00Z,27.0660,-96.3383,-2.0,46.99,11144222 
TABS,ioos:station:TABS:X:1,2016-07-19T23:30:00Z,27.0660,-96.3383,-2.0,45.6,11144222 
TABS,ioos:station:TABS:X:1,2016-07-20T00:00:00Z,27.0660,-96.3383,-2.0,41.56,11144222 
TABS,ioos:station:TABS:X:1,2016-07-20T00:30:00Z,27.0660,-96.3383,-2.0,37.17,11133222 
TABS,ioos:station:TABS:X:1,2016-07-20T01:00:00Z,27.0660,-96.3383,-2.0,35.06,11133222 
TABS,ioos:station:TABS:X:1,2016-07-20T01:30:00Z,27.0660,-96.3383,-2.0,33.16,11111222 
TABS,ioos:station:TABS:X:1,2016-07-20T02:00:00Z,27.0660,-96.3383,-2.0,31.99,11111222 
TABS,ioos:station:TABS:X:1,2016-07-20T02:30:00Z,27.0660,-96.3383,-2.0,31.08,11111222 
TABS,ioos:station:TABS:X:1,2016-07-20T03:00:00Z,27.0660,-96.3383,-2.0,30.4,11111222 
TABS,ioos:station:TABS:X:1,2016-07-20T03:30:00Z,27.0660,-96.3383,-2.0,29.84,11111222 
TABS,ioos:station:TABS:X:1,2016-07-20T04:00:00Z,27.0660,-96.3383,-2.0,29.35,11111222 
TABS,ioos:station:TABS:X:1,2016-07-20T04:30:00Z,27.0660,-96.3383,-2.0,28.85,11111222 
TABS,ioos:station:TABS:X:1,2016-07-20T05:00:00Z,27.0660,-96.3383,-2.0,28.41,11111222 
TABS,ioos:station:TABS:X:1,2016-07-20T05:30:00Z,27.0660,-96.3383,-2.0,27.93,11111222 
TABS,ioos:station:TABS:X:1,2016-07-20T06:00:00Z,27.0660,-96.3383,-2.0,27.56,11111222 
TABS,ioos:station:TABS:X:1,2016-07-20T06:30:00Z,27.0660,-96.3383,-2.0,27.21,11111222 
TABS,ioos:station:TABS:X:1,2016-07-20T07:00:00Z,27.0660,-96.3383,-2.0,27.0,11111222 
TABS,ioos:station:TABS:X:1,2016-07-20T07:30:00Z,27.0660,-96.3383,-2.0,26.74,11111222 
TABS,ioos:station:TABS:X:1,2016-07-20T08:00:00Z,27.0660,-96.3383,-2.0,26.56,11111222 
TABS,ioos:station:TABS:X:1,2016-07-20T08:30:00Z,27.0660,-96.3383,-2.0,26.42,11111222 
TABS,ioos:station:TABS:X:1,2016-07-20T09:00:00Z,27.0660,-96.3383,-2.0,26.24,11111222 
TABS,ioos:station:TABS:X:1,2016-07-20T09:30:00Z,27.0660,-96.3383,-2.0,26.05,11111222 
TABS,ioos:station:TABS:X:1,2016-07-20T10:00:00Z,27.0660,-96.3383,-2.0,25.82,11111222 
TABS,ioos:station:TABS:X:1,2016-07-20T10:30:00Z,27.0660,-96.3383,-2.0,25.69,11111222 
TABS,ioos:station:TABS:X:1,2016-07-20T11:00:00Z,27.0660,-96.3383,-2.0,25.66,11111222 
TABS,ioos:station:TABS:X:1,2016-07-20T11:30:00Z,27.0660,-96.3383,-2.0,25.44,11111222 
TABS,ioos:station:TABS:X:1,2016-07-20T12:00:00Z,27.0660,-96.3383,-2.0,25.33,11111222 
TABS,ioos:station:TABS:X:1,2016-07-20T12:30:00Z,27.0660,-96.3383,-2.0,26.33,11111222 
TABS,ioos:station:TABS:X:1,2016-07-20T13:00:00Z,27.0660,-96.3383,-2.0,28.64,11111222 
TABS,ioos:station:TABS:X:1,2016-07-20T13:30:00Z,27.0660,-96.3383,-2.0,30.9,11111222 
TABS,ioos:station:TABS:X:1,2016-07-20T14:00:00Z,27.0660,-96.3383,-2.0,33.4,11111222 
TABS,ioos:station:TABS:X:1,2016-07-20T14:30:00Z,27.0660,-96.3383,-2.0,35.53,11133222 
TABS,ioos:station:TABS:X:1,2016-07-20T17:00:00Z,27.0660,-96.3383,-2.0,45.65,11144222 
TABS,ioos:station:TABS:X:1,2016-07-20T17:30:00Z,27.0660,-96.3383,-2.0,46.37,11144222 
TABS,ioos:station:TABS:X:1,2016-07-20T18:00:00Z,27.0660,-96.3383,-2.0,48.2,11144222 
TABS,ioos:station:TABS:X:1,2016-07-20T18:30:00Z,27.0660,-96.3383,-2.0,49.54,11144222 
TABS,ioos:station:TABS:X:1,2016-07-20T19:00:00Z,27.0660,-96.3383,-2.0,48.6,11144222 
TABS,ioos:station:TABS:X:1,2016-07-20T19:30:00Z,27.0660,-96.3383,-2.0,49.77,11144222 
TABS,ioos:station:TABS:X:1,2016-07-20T20:00:00Z,27.0660,-96.3383,-2.0,50.17,11144222 
TABS,ioos:station:TABS:X:1,2016-07-20T20:30:00Z,27.0660,-96.3383,-2.0,50.35,11144222 
TABS,ioos:station:TABS:X:1,2016-07-20T21:00:00Z,27.0660,-96.3383,-2.0,53.39,11144222 
TABS,ioos:station:TABS:X:1,2016-07-20T23:30:00Z,27.0660,-96.3383,-2.0,48.48,11144222 
TABS,ioos:station:TABS:X:1,2016-07-21T00:00:00Z,27.0660,-96.3383,-2.0,42.84,11144222 
TABS,ioos:station:TABS:X:1,2016-07-21T00:30:00Z,27.0660,-96.3383,-2.0,39.6,11133222 
TABS,ioos:station:TABS:X:1,2016-07-21T01:00:00Z,27.0660,-96.3383,-2.0,37.17,11133222 
TABS,ioos:station:TABS:X:1,2016-07-21T01:30:00Z,27.0660,-96.3383,-2.0,35.38,11133222 
TABS,ioos:station:TABS:X:1,2016-07-21T02:00:00Z,27.0660,-96.3383,-2.0,34.03,11111222 
TABS,ioos:station:TABS:X:1,2016-07-21T02:30:00Z,27.0660,-96.3383,-2.0,32.97,11111222 
TABS,ioos:station:TABS:X:1,2016-07-21T03:00:00Z,27.0660,-96.3383,-2.0,32.13,11111222 
TABS,ioos:station:TABS:X:1,2016-07-21T03:30:00Z,27.0660,-96.3383,-2.0,31.42,11111222 
TABS,ioos:station:TABS:X:1,2016-07-21T04:00:00Z,27.0660,-96.3383,-2.0,30.79,11111222 
TABS,ioos:station:TABS:X:1,2016-07-21T04:30:00Z,27.0660,-96.3383,-2.0,30.33,11111222 
TABS,ioos:station:TABS:X:1,2016-07-21T05:00:00Z,27.0660,-96.3383,-2.0,29.83,11111222 
TABS,ioos:station:TABS:X:1,2016-07-21T05:30:00Z,27.0660,-96.3383,-2.0,29.41,11111222 
TABS,ioos:station:TABS:X:1,2016-07-21T06:00:00Z,27.0660,-96.3383,-2.0,28.99,11111222 
TABS,ioos:station:TABS:X:1,2016-07-21T06:30:00Z,27.0660,-96.3383,-2.0,28.65,11111222 
TABS,ioos:station:TABS:X:1,2016-07-21T07:00:00Z,27.0660,-96.3383,-2.0,28.28,11111222 
TABS,ioos:station:TABS:X:1,2016-07-21T07:30:00Z,27.0660,-96.3383,-2.0,27.93,11111222 
TABS,ioos:station:TABS:X:1,2016-07-21T08:00:00Z,27.0660,-96.3383,-2.0,27.59,11111222 
TABS,ioos:station:TABS:X:1,2016-07-21T08:30:00Z,27.0660,-96.3383,-2.0,27.28,11111222 
TABS,ioos:station:TABS:X:1,2016-07-21T09:00:00Z,27.0660,-96.3383,-2.0,27.02,11111222 
TABS,ioos:station:TABS:X:1,2016-07-21T09:30:00Z,27.0660,-96.3383,-2.0,26.64,11111222 
TABS,ioos:station:TABS:X:1,2016-07-21T10:00:00Z,27.0660,-96.3383,-2.0,26.36,11111222 
TABS,ioos:station:TABS:X:1,2016-07-21T10:30:00Z,27.0660,-96.3383,-2.0,26.11,11111222 
TABS,ioos:station:TABS:X:1,2016-07-21T11:00:00Z,27.0660,-96.3383,-2.0,25.88,11111222 
TABS,ioos:station:TABS:X:1,2016-07-21T11:30:00Z,27.0660,-96.3383,-2.0,25.61,11111222 
TABS,ioos:station:TABS:X:1,2016-07-21T12:00:00Z,27.0660,-96.3383,-2.0,25.62,11111222 
TABS,ioos:station:TABS:X:1,2016-07-21T12:30:00Z,27.0660,-96.3383,-2.0,27.02,11111222 
TABS,ioos:station:TABS:X:1,2016-07-21T13:00:00Z,27.0660,-96.3383,-2.0,29.59,11111222 
TABS,ioos:station:TABS:X:1,2016-07-21T13:30:00Z,27.0660,-96.3383,-2.0,31.92,11111222 
TABS,ioos:station:TABS:X:1,2016-07-21T14:00:00Z,27.0660,-96.3383,-2.0,34.0,11111222 
TABS,ioos:station:TABS:X:1,2016-07-21T14:30:00Z,27.0660,-96.3383,-2.0,35.17,11133222 
TABS,ioos:station:TABS:X:1,2016-07-21T15:00:00Z,27.0660,-96.3383,-2.0,35.62,11133222 
TABS,ioos:station:TABS:X:1,2016-07-21T15:30:00Z,27.0660,-96.3383,-2.0,37.6,11133222 
TABS,ioos:station:TABS:X:1,2016-07-21T16:00:00Z,27.0660,-96.3383,-2.0,40.24,11144222 
TABS,ioos:station:TABS:X:1,2016-07-21T16:30:00Z,27.0660,-96.3383,-2.0,43.19,11144222 
TABS,ioos:station:TABS:X:1,2016-07-21T17:00:00Z,27.0660,-96.3383,-2.0,45.69,11144222 
TABS,ioos:station:TABS:X:1,2016-07-21T17:30:00Z,27.0660,-96.3383,-2.0,47.8,11144222 
TABS,ioos:station:TABS:X:1,2016-07-21T18:00:00Z,27.0660,-96.3383,-2.0,48.28,11144222 
TABS,ioos:station:TABS:X:1,2016-07-21T18:30:00Z,27.0660,-96.3383,-2.0,50.58,11144222 
TABS,ioos:station:TABS:X:1,2016-07-21T19:00:00Z,27.0660,-96.3383,-2.0,50.73,11144222 
TABS,ioos:station:TABS:X:1,2016-07-21T19:30:00Z,27.0660,-96.3383,-2.0,50.79,11144222 
TABS,ioos:station:TABS:X:1,2016-07-21T20:00:00Z,27.0660,-96.3383,-2.0,49.82,11144222 
TABS,ioos:station:TABS:X:1,2016-07-21T20:30:00Z,27.0660,-96.3383,-2.0,51.5,11144222 
TABS,ioos:station:TABS:X:1,2016-07-21T21:00:00Z,27.0660,-96.3383,-2.0,53.21,11144222 
TABS,ioos:station:TABS:X:1,2016-07-21T21:30:00Z,27.0660,-96.3383,-2.0,48.4,11144222 
TABS,ioos:station:TABS:X:1,2016-07-21T22:00:00Z,27.0660,-96.3383,-2.0,45.98,11144222 
TABS,ioos:station:TABS:X:1,2016-07-21T22:30:00Z,27.0660,-96.3383,-2.0,47.51,11144222 
TABS,ioos:station:TABS:X:1,2016-07-21T23:00:00Z,27.0660,-96.3383,-2.0,44.96,11144222 
TABS,ioos:station:TABS:X:1,2016-07-21T23:30:00Z,27.0660,-96.3383,-2.0,47.9,11144222 
TABS,ioos:station:TABS:X:1,2016-07-22T00:00:00Z,27.0660,-96.3383,-2.0,43.76,11144222 
TABS,ioos:station:TABS:X:1,2016-07-22T00:30:00Z,27.0660,-96.3383,-2.0,39.73,11133222 
TABS,ioos:station:TABS:X:1,2016-07-22T01:00:00Z,27.0660,-96.3383,-2.0,37.47,11133222 
TABS,ioos:station:TABS:X:1,2016-07-22T01:30:00Z,27.0660,-96.3383,-2.0,35.87,11133222 
TABS,ioos:station:TABS:X:1,2016-07-22T02:00:00Z,27.0660,-96.3383,-2.0,34.71,11111222 
TABS,ioos:station:TABS:X:1,2016-07-22T02:30:00Z,27.0660,-96.3383,-2.0,33.83,11111222 
TABS,ioos:station:TABS:X:1,2016-07-22T03:00:00Z,27.0660,-96.3383,-2.0,33.02,11111222 
TABS,ioos:station:TABS:X:1,2016-07-22T03:30:00Z,27.0660,-96.3383,-2.0,32.42,11111222 
TABS,ioos:station:TABS:X:1,2016-07-22T04:00:00Z,27.0660,-96.3383,-2.0,31.78,11111222 
TABS,ioos:station:TABS:X:1,2016-07-22T04:30:00Z,27.0660,-96.3383,-2.0,30.97,11111222 
TABS,ioos:station:TABS:X:1,2016-07-22T05:00:00Z,27.0660,-96.3383,-2.0,30.36,11111222 
TABS,ioos:station:TABS:X:1,2016-07-22T05:30:00Z,27.0660,-96.3383,-2.0,29.86,11111222 
TABS,ioos:station:TABS:X:1,2016-07-22T06:00:00Z,27.0660,-96.3383,-2.0,29.43,11111222 
TABS,ioos:station:TABS:X:1,2016-07-22T06:30:00Z,27.0660,-96.3383,-2.0,28.98,11111222 
TABS,ioos:station:TABS:X:1,2016-07-22T07:00:00Z,27.0660,-96.3383,-2.0,28.59,11111222 
TABS,ioos:station:TABS:X:1,2016-07-22T07:30:00Z,27.0660,-96.3383,-2.0,28.19,11111222 
TABS,ioos:station:TABS:X:1,2016-07-22T08:00:00Z,27.0660,-96.3383,-2.0,27.9,11111222 
TABS,ioos:station:TABS:X:1,2016-07-22T08:30:00Z,27.0660,-96.3383,-2.0,27.59,11111222 
TABS,ioos:station:TABS:X:1,2016-07-22T09:00:00Z,27.0660,-96.3383,-2.0,27.33,11111222 
TABS,ioos:station:TABS:X:1,2016-07-22T09:30:00Z,27.0660,-96.3383,-2.0,26.92,11111222 
TABS,ioos:station:TABS:X:1,2016-07-22T10:00:00Z,27.0660,-96.3383,-2.0,26.57,11111222 
TABS,ioos:station:TABS:X:1,2016-07-22T10:30:00Z,27.0660,-96.3383,-2.0,26.44,11111222 
TABS,ioos:station:TABS:X:1,2016-07-22T11:00:00Z,27.0660,-96.3383,-2.0,26.26,11111222 
TABS,ioos:station:TABS:X:1,2016-07-22T11:30:00Z,27.0660,-96.3383,-2.0,26.08,11111222 
TABS,ioos:station:TABS:X:1,2016-07-22T12:00:00Z,27.0660,-96.3383,-2.0,26.04,11111222 
TABS,ioos:station:TABS:X:1,2016-07-22T12:30:00Z,27.0660,-96.3383,-2.0,27.31,11111222 
TABS,ioos:station:TABS:X:1,2016-07-22T13:00:00Z,27.0660,-96.3383,-2.0,29.56,11111222 
TABS,ioos:station:TABS:X:1,2016-07-22T13:30:00Z,27.0660,-96.3383,-2.0,32.05,11111222 
TABS,ioos:station:TABS:X:1,2016-07-22T14:00:00Z,27.0660,-96.3383,-2.0,33.93,11111222 
TABS,ioos:station:TABS:X:1,2016-07-22T14:30:00Z,27.0660,-96.3383,-2.0,35.61,11133222 
TABS,ioos:station:TABS:X:1,2016-07-22T15:00:00Z,27.0660,-96.3383,-2.0,35.99,11133222 
TABS,ioos:station:TABS:X:1,2016-07-22T15:30:00Z,27.0660,-96.3383,-2.0,38.05,11133222 
TABS,ioos:station:TABS:X:1,2016-07-22T16:00:00Z,27.0660,-96.3383,-2.0,40.79,11144222 
TABS,ioos:station:TABS:X:1,2016-07-22T16:30:00Z,27.0660,-96.3383,-2.0,43.02,11144222 
TABS,ioos:station:TABS:X:1,2016-07-22T17:00:00Z,27.0660,-96.3383,-2.0,45.6,11144222 
TABS,ioos:station:TABS:X:1,2016-07-22T17:30:00Z,27.0660,-96.3383,-2.0,47.69,11144222 
TABS,ioos:station:TABS:X:1,2016-07-22T18:00:00Z,27.0660,-96.3383,-2.0,49.56,11144222 
TABS,ioos:station:TABS:X:1,2016-07-22T18:30:00Z,27.0660,-96.3383,-2.0,50.46,11144222 
TABS,ioos:station:TABS:X:1,2016-07-22T19:00:00Z,27.0660,-96.3383,-2.0,51.58,11144222 
TABS,ioos:station:TABS:X:1,2016-07-22T19:30:00Z,27.0660,-96.3383,-2.0,51.8,11144222 
TABS,ioos:station:TABS:X:1,2016-07-22T20:00:00Z,27.0660,-96.3383,-2.0,50.49,11144222 
TABS,ioos:station:TABS:X:1,2016-07-22T20:30:00Z,27.0660,-96.3383,-2.0,52.49,11144222 
TABS,ioos:station:TABS:X:1,2016-07-22T21:00:00Z,27.0660,-96.3383,-2.0,52.99,11144222 
TABS,ioos:station:TABS:X:1,2016-07-22T21:30:00Z,27.0660,-96.3383,-2.0,48.98,11144222 
TABS,ioos:station:TABS:X:1,2016-07-22T22:30:00Z,27.0660,-96.3383,-2.0,48.15,11144222 
TABS,ioos:station:TABS:X:1,2016-07-22T23:00:00Z,27.0660,-96.3383,-2.0,48.83,11144222 
TABS,ioos:station:TABS:X:1,2016-07-22T23:30:00Z,27.0660,-96.3383,-2.0,49.5,11144222 
TABS,ioos:station:TABS:X:1,2016-07-23T00:00:00Z,27.0660,-96.3383,-2.0,44.75,11144222 
TABS,ioos:station:TABS:X:1,2016-07-23T00:30:00Z,27.0660,-96.3383,-2.0,40.79,11144222 
TABS,ioos:station:TABS:X:1,2016-07-23T01:00:00Z,27.0660,-96.3383,-2.0,38.57,11133222 
TABS,ioos:station:TABS:X:1,2016-07-23T01:30:00Z,27.0660,-96.3383,-2.0,36.92,11133222 
TABS,ioos:station:TABS:X:1,2016-07-23T02:00:00Z,27.0660,-96.3383,-2.0,35.63,11133222 
TABS,ioos:station:TABS:X:1,2016-07-23T02:30:00Z,27.0660,-96.3383,-2.0,34.66,11111222 
TABS,ioos:station:TABS:X:1,2016-07-23T03:00:00Z,27.0660,-96.3383,-2.0,33.87,11111222 
TABS,ioos:station:TABS:X:1,2016-07-23T03:30:00Z,27.0660,-96.3383,-2.0,32.88,11111222 
TABS,ioos:station:TABS:X:1,2016-07-23T04:00:00Z,27.0660,-96.3383,-2.0,32.12,11111222 
TABS,ioos:station:TABS:X:1,2016-07-23T04:30:00Z,27.0660,-96.3383,-2.0,31.46,11111222 
TABS,ioos:station:TABS:X:1,2016-07-23T05:00:00Z,27.0660,-96.3383,-2.0,30.92,11111222 
TABS,ioos:station:TABS:X:1,2016-07-23T05:30:00Z,27.0660,-96.3383,-2.0,30.44,11111222 
TABS,ioos:station:TABS:X:1,2016-07-23T06:00:00Z,27.0660,-96.3383,-2.0,29.89,11111222 
TABS,ioos:station:TABS:X:1,2016-07-23T06:30:00Z,27.0660,-96.3383,-2.0,29.46,11111222 
TABS,ioos:station:TABS:X:1,2016-07-23T07:00:00Z,27.0660,-96.3383,-2.0,29.1,11111222 
TABS,ioos:station:TABS:X:1,2016-07-23T07:30:00Z,27.0660,-96.3383,-2.0,28.69,11111222 
TABS,ioos:station:TABS:X:1,2016-07-23T08:00:00Z,27.0660,-96.3383,-2.0,28.33,11111222 
TABS,ioos:station:TABS:X:1,2016-07-23T08:30:00Z,27.0660,-96.3383,-2.0,28.05,11111222 
TABS,ioos:station:TABS:X:1,2016-07-23T09:00:00Z,27.0660,-96.3383,-2.0,27.72,11111222 
TABS,ioos:station:TABS:X:1,2016-07-23T09:30:00Z,27.0660,-96.3383,-2.0,27.4,11111222 
TABS,ioos:station:TABS:X:1,2016-07-23T10:00:00Z,27.0660,-96.3383,-2.0,27.1,11111222 
TABS,ioos:station:TABS:X:1,2016-07-23T10:30:00Z,27.0660,-96.3383,-2.0,26.83,11111222 
TABS,ioos:station:TABS:X:1,2016-07-23T11:00:00Z,27.0660,-96.3383,-2.0,26.63,11111222 
TABS,ioos:station:TABS:X:1,2016-07-23T11:30:00Z,27.0660,-96.3383,-2.0,26.49,11111222 
TABS,ioos:station:TABS:X:1,2016-07-23T12:00:00Z,27.0660,-96.3383,-2.0,26.5,11111222 
TABS,ioos:station:TABS:X:1,2016-07-23T12:30:00Z,27.0660,-96.3383,-2.0,27.58,11111222 
TABS,ioos:station:TABS:X:1,2016-07-23T13:00:00Z,27.0660,-96.3383,-2.0,29.95,11111222 
TABS,ioos:station:TABS:X:1,2016-07-23T13:30:00Z,27.0660,-96.3383,-2.0,32.3,11111222 
TABS,ioos:station:TABS:X:1,2016-07-23T14:00:00Z,27.0660,-96.3383,-2.0,34.21,11111222 
TABS,ioos:station:TABS:X:1,2016-07-23T14:30:00Z,27.0660,-96.3383,-2.0,35.57,11133222 
TABS,ioos:station:TABS:X:1,2016-07-23T15:00:00Z,27.0660,-96.3383,-2.0,35.76,11133222 
TABS,ioos:station:TABS:X:1,2016-07-23T15:30:00Z,27.0660,-96.3383,-2.0,37.06,11133222 
TABS,ioos:station:TABS:X:1,2016-07-23T16:00:00Z,27.0660,-96.3383,-2.0,39.0,11133222 
TABS,ioos:station:TABS:X:1,2016-07-23T16:30:00Z,27.0660,-96.3383,-2.0,42.62,11144222 
TABS,ioos:station:TABS:X:1,2016-07-23T17:00:00Z,27.0660,-96.3383,-2.0,44.09,11144222 
TABS,ioos:station:TABS:X:1,2016-07-23T17:30:00Z,27.0660,-96.3383,-2.0,45.67,11144222 
TABS,ioos:station:TABS:X:1,2016-07-23T18:00:00Z,27.0660,-96.3383,-2.0,48.56,11144222 
TABS,ioos:station:TABS:X:1,2016-07-23T18:30:00Z,27.0660,-96.3383,-2.0,48.36,11144222 
TABS,ioos:station:TABS:X:1,2016-07-23T19:00:00Z,27.0660,-96.3383,-2.0,50.12,11144222 
TABS,ioos:station:TABS:X:1,2016-07-23T19:30:00Z,27.0660,-96.3383,-2.0,51.3,11144222 
TABS,ioos:station:TABS:X:1,2016-07-23T20:00:00Z,27.0660,-96.3383,-2.0,52.02,11144222 
TABS,ioos:station:TABS:X:1,2016-07-23T20:30:00Z,27.0660,-96.3383,-2.0,52.82,11144222 
TABS,ioos:station:TABS:X:1,2016-07-23T21:00:00Z,27.0660,-96.3383,-2.0,52.73,11144222 
TABS,ioos:station:TABS:X:1,2016-07-23T21:30:00Z,27.0660,-96.3383,-2.0,47.12,11144222 
TABS,ioos:station:TABS:X:1,2016-07-23T22:00:00Z,27.0660,-96.3383,-2.0,44.54,11144222 
TABS,ioos:station:TABS:X:1,2016-07-23T22:30:00Z,27.0660,-96.3383,-2.0,46.69,11144222 
TABS,ioos:station:TABS:X:1,2016-07-23T23:00:00Z,27.0660,-96.3383,-2.0,48.14,11144222 
TABS,ioos:station:TABS:X:1,2016-07-23T23:30:00Z,27.0660,-96.3383,-2.0,48.63,11144222 
TABS,ioos:station:TABS:X:1,2016-07-24T00:00:00Z,27.0660,-96.3383,-2.0,44.71,11144222 
TABS,ioos:station:TABS:X:1,2016-07-24T00:30:00Z,27.0660,-96.3383,-2.0,40.52,11144222 
TABS,ioos:station:TABS:X:1,2016-07-24T01:00:00Z,27.0660,-96.3383,-2.0,38.26,11133222 
TABS,ioos:station:TABS:X:1,2016-07-24T01:30:00Z,27.0660,-96.3383,-2.0,36.69,11133222 
TABS,ioos:station:TABS:X:1,2016-07-24T02:00:00Z,27.0660,-96.3383,-2.0,35.39,11133222 
TABS,ioos:station:TABS:X:1,2016-07-24T02:30:00Z,27.0660,-96.3383,-2.0,34.41,11111222 
TABS,ioos:station:TABS:X:1,2016-07-24T03:00:00Z,27.0660,-96.3383,-2.0,33.41,11111222 
TABS,ioos:station:TABS:X:1,2016-07-24T03:30:00Z,27.0660,-96.3383,-2.0,32.53,11111222 
TABS,ioos:station:TABS:X:1,2016-07-24T04:00:00Z,27.0660,-96.3383,-2.0,31.82,11111222 
TABS,ioos:station:TABS:X:1,2016-07-24T04:30:00Z,27.0660,-96.3383,-2.0,31.2,11111222 
TABS,ioos:station:TABS:X:1,2016-07-24T05:00:00Z,27.0660,-96.3383,-2.0,30.66,11111222 
TABS,ioos:station:TABS:X:1,2016-07-24T05:30:00Z,27.0660,-96.3383,-2.0,30.16,11111222 
TABS,ioos:station:TABS:X:1,2016-07-24T06:00:00Z,27.0660,-96.3383,-2.0,29.76,11111222 
TABS,ioos:station:TABS:X:1,2016-07-24T06:30:00Z,27.0660,-96.3383,-2.0,29.31,11111222 
TABS,ioos:station:TABS:X:1,2016-07-24T07:00:00Z,27.0660,-96.3383,-2.0,28.91,11111222 
TABS,ioos:station:TABS:X:1,2016-07-24T07:30:00Z,27.0660,-96.3383,-2.0,28.52,11111222 
TABS,ioos:station:TABS:X:1,2016-07-24T08:00:00Z,27.0660,-96.3383,-2.0,28.2,11111222 
TABS,ioos:station:TABS:X:1,2016-07-24T08:30:00Z,27.0660,-96.3383,-2.0,27.86,11111222 
TABS,ioos:station:TABS:X:1,2016-07-24T09:00:00Z,27.0660,-96.3383,-2.0,27.55,11111222 
TABS,ioos:station:TABS:X:1,2016-07-24T09:30:00Z,27.0660,-96.3383,-2.0,27.32,11111222 
TABS,ioos:station:TABS:X:1,2016-07-24T10:00:00Z,27.0660,-96.3383,-2.0,27.08,11111222 
TABS,ioos:station:TABS:X:1,2016-07-24T10:30:00Z,27.0660,-96.3383,-2.0,26.81,11111222 
TABS,ioos:station:TABS:X:1,2016-07-24T11:00:00Z,27.0660,-96.3383,-2.0,26.58,11111222 
TABS,ioos:station:TABS:X:1,2016-07-24T11:30:00Z,27.0660,-96.3383,-2.0,26.5,11111222 
TABS,ioos:station:TABS:X:1,2016-07-24T12:00:00Z,27.0660,-96.3383,-2.0,26.56,11111222 
TABS,ioos:station:TABS:X:1,2016-07-24T12:30:00Z,27.0660,-96.3383,-2.0,27.51,11111222 
TABS,ioos:station:TABS:X:1,2016-07-24T13:00:00Z,27.0660,-96.3383,-2.0,29.76,11111222 
TABS,ioos:station:TABS:X:1,2016-07-24T13:30:00Z,27.0660,-96.3383,-2.0,32.58,11111222 
TABS,ioos:station:TABS:X:1,2016-07-24T14:00:00Z,27.0660,-96.3383,-2.0,34.59,11111222 
TABS,ioos:station:TABS:X:1,2016-07-24T14:30:00Z,27.0660,-96.3383,-2.0,36.05,11133222 
TABS,ioos:station:TABS:X:1,2016-07-24T15:00:00Z,27.0660,-96.3383,-2.0,36.75,11133222 
TABS,ioos:station:TABS:X:1,2016-07-24T15:30:00Z,27.0660,-96.3383,-2.0,39.23,11133222 
TABS,ioos:station:TABS:X:1,2016-07-24T16:00:00Z,27.0660,-96.3383,-2.0,41.37,11144222 
TABS,ioos:station:TABS:X:1,2016-07-24T16:30:00Z,27.0660,-96.3383,-2.0,42.52,11144222 
TABS,ioos:station:TABS:X:1,2016-07-24T17:00:00Z,27.0660,-96.3383,-2.0,45.66,11144222 
TABS,ioos:station:TABS:X:1,2016-07-24T17:30:00Z,27.0660,-96.3383,-2.0,47.08,11144222 
TABS,ioos:station:TABS:X:1,2016-07-24T18:00:00Z,27.0660,-96.3383,-2.0,45.94,11144222 
TABS,ioos:station:TABS:X:1,2016-07-24T18:30:00Z,27.0660,-96.3383,-2.0,47.52,11144222 
TABS,ioos:station:TABS:X:1,2016-07-24T19:00:00Z,27.0660,-96.3383,-2.0,50.64,11144222 
TABS,ioos:station:TABS:X:1,2016-07-24T19:30:00Z,27.0660,-96.3383,-2.0,52.17,11144222 
TABS,ioos:station:TABS:X:1,2016-07-24T20:00:00Z,27.0660,-96.3383,-2.0,52.12,11144222 
TABS,ioos:station:TABS:X:1,2016-07-24T20:30:00Z,27.0660,-96.3383,-2.0,49.28,11144222 
TABS,ioos:station:TABS:X:1,2016-07-24T21:00:00Z,27.0660,-96.3383,-2.0,51.65,11144222 
TABS,ioos:station:TABS:X:1,2016-07-24T21:30:00Z,27.0660,-96.3383,-2.0,48.11,11144222 
TABS,ioos:station:TABS:X:1,2016-07-24T22:00:00Z,27.0660,-96.3383,-2.0,43.65,11144222 
TABS,ioos:station:TABS:X:1,2016-07-24T22:30:00Z,27.0660,-96.3383,-2.0,46.37,11144222 